Regional Weather Roundup
Issued by NWS

Home | Current Version | Previous Version | Text Only | Print | Product List | Glossary On
Versions: 1 2 3 4 5 6 7 8 9 10 11 12 13 14 15 16 17 18 19 20 21 22 23 24 25 26 27 28 29 30 31 32 33 34 35 36 37 38 39 40 41 42 43 44 45 46 47 48 49 50
000
ASCA42 TJSJ 200011
RWRPR
PUERTO RICO/U.S. VIRGIN ISLANDS HOURLY WEATHER ROUNDUP
NATIONAL WEATHER SERVICE SAN JUAN PR
800 PM AST FRI SEP 19 2014

PRZ001-004-200100-
PUERTO RICO

CITY           SKY/WX    TMP DP  RH WIND       PRES   REMARKS
SAN JUAN LMM   PTCLDY    82  77  83 E7        29.97R HX  91
AGUADILLA      MOCLDY    81  73  78 CALM      29.96S
CEIBA          PTCLDY    84  73  70 E9        29.99R HX  91
$$

PRZ006-007-200100-
U.S. VIRGIN ISLANDS

CITY           SKY/WX    TMP DP  RH WIND       PRES   REMARKS
CHRISTIANSTED  PTCLDY    82  75  78 E13       29.97R
$$

HOURLY WEATHER ROUNDUP FOR THE NEWS MEDIA

CITY           SKY/WX    TMP DP  RH WIND       PRES   REMARKS
MIAMI          CLOUDY    78  75  90 CALM      29.95R
ORLANDO        LGT RAIN  73  69  87 E8        29.98R
NEW YORK       PTCLDY    59  47  64 E9        30.37R
NEWARK         MOCLDY    62  49  62 E8        30.36R
CHICAGO        MOCLDY    72  44  36 S9        29.98F
HARTFORD       CLEAR     47  38  71 N5        30.42R
BOSTON         CLEAR     51  33  50 E8        30.43R
DALLAS         MOCLDY    86  66  51 SE12      29.89S
PHILADELPHIA   PTCLDY    62  54  74 E13       30.33R



USA.gov is the U.S. government's official web portal to all federal, state and local government web resources and services.